Location: Maccacari
(45.1333°N, 11.1333°E)
Time: 03:08:41
(UTC+00:00)

Altair - Pass Details

Date: 31 January 2021
Orbit: 1501 x 1682 km, 47.2° (Epoch: 01 March)

Event Time Altitude Azimuth Distance (km) Brightness Sun altitude
Rises 02:04:12 0° 222° (SW) 4,789 - -47.4°
Reaches altitude 10° 02:07:20 10° 218° (SW) 3,830 - -46.9°
Maximum altitude 02:16:47 55° 144° (SE) 1,933 - -45.4°
Exits shadow 02:18:49 48° 108° (ESE) 2,072 8.2 -45.1°
Drops below altitude 10° 02:26:31 10° 71° (ENE) 3,943 10.2 -43.8°
Sets 02:29:47 0° 67° (ENE) 4,939 11.0 -43.3°
